Content
SEND FEEDBACK

Daily
Averages
Monthly
Summary
United States of America

CAMP SAN SABA, TEXAS


Home > North America > United States > Texas
Elevation: 1690 feet     Latitude: 31 00N     Longitude: 099 16W

WEATHER
 
SELECT A DAY
Number of Records: 218,125;   Date Range: 8/25/05 - 10/29/14
 
SHARE

PRINT THIS DATA

[ ← Previous Day ]
WEATHER ALMANAC - FEBRUARY 13, 2013
[ Next Day → ]
[ °C ]   °F
Weather ElementAverageHighLow
Temperature44.4 °F60.8 °F (3:55 pm)26.6 °F (7:15 am)
Dewpoint24.9 °F32 °F (9:35 am)19.4 °F (3:55 pm)
Humidity53.8 %100 % (7:15 am)20 % (3:55 pm)
Barometer30.08 in30.15 in (8:55 am)30.02 in (4:55 pm)
Wind Speed6.3 mph12.7 mph (1:15 am)
Weather ElementAverage
Visibility10 mi
Wind DirectionWSW (233.5 °)

Weather ElementTotal
Precipitation---
Heating Degree Days21.3 (Base 65)
Averaged from 68 records on February 13, 2013
WEATHER CONDITIONS BREAKOUT
WIND DIRECTION BREAKOUT
WEATHER BY HOUR - FEBRUARY 13, 2013
[ °C ]   °F
Local TimeTemperatureDewpointHumidityBarometerVisibilityWind DirectionWind SpeedGust SpeedPrecipitationEventsConditions
1:15 AM35.6 °F30.2 °F81 %30.09 in10.0 miNW (310°)12.7 mphClear
1:35 AM35.6 °F30.2 °F81 %30.09 in10.0 miNW (320°)11.5 mphClear
1:55 AM35.6 °F30.2 °F81 %30.09 in10.0 miNW (310°)9.2 mphClear
2:15 AM33.8 °F30.2 °F87 %30.09 in10.0 miWNW (300°)8.1 mphClear
2:35 AM33.8 °F30.2 °F87 %30.09 in10.0 miWNW (300°)8.1 mphClear
2:55 AM33.8 °F28.4 °F81 %30.09 in10.0 miWNW (290°)8.1 mphClear
3:15 AM33.8 °F30.2 °F87 %30.10 in10.0 miWNW (300°)8.1 mphClear
3:35 AM33.8 °F30.2 °F87 %30.11 in10.0 miWNW (290°)8.1 mphClear
3:55 AM32.0 °F30.2 °F93 %30.10 in10.0 miWNW (290°)5.8 mphClear
4:15 AM30.2 °F28.4 °F93 %30.11 in10.0 miWest (280°)5.8 mphClear
4:35 AM30.2 °F28.4 °F93 %30.10 in10.0 miWest (260°)4.6 mphClear
4:55 AM30.2 °F28.4 °F93 %30.10 in10.0 miWest (270°)3.5 mphClear
5:15 AM30.2 °F28.4 °F93 %30.09 in10.0 miWest (270°)4.6 mphClear
5:35 AM28.4 °F26.6 °F93 %30.09 in10.0 miWest (260°)5.8 mphClear
5:55 AM28.4 °F26.6 °F93 %30.10 in10.0 miWest (280°)6.9 mphClear
6:15 AM28.4 °F26.6 °F93 %30.11 in10.0 miWest (270°)6.9 mphClear
6:35 AM28.4 °F26.6 °F93 %30.10 in10.0 miWest (270°)6.9 mphClear
6:55 AM28.4 °F26.6 °F93 %30.12 in10.0 miWest (270°)5.8 mphClear
7:15 AM26.6 °F26.6 °F100 %30.12 in10.0 miWSW (250°)5.8 mphClear
7:35 AM26.6 °F26.6 °F100 %30.12 in10.0 miWSW (240°)6.9 mphClear
7:55 AM30.2 °F28.4 °F93 %30.12 in10.0 miWSW (250°)6.9 mphClear
8:15 AM32.0 °F28.4 °F87 %30.13 in10.0 miWest (260°)5.8 mphClear
8:35 AM33.8 °F30.2 °F87 %30.14 in10.0 miWest (270°)9.2 mphClear
8:55 AM37.4 °F30.2 °F75 %30.15 in10.0 miWest (260°)8.1 mphClear
9:15 AM39.2 °F30.2 °F70 %30.15 in10.0 miWest (260°)9.2 mphClear
9:35 AM42.8 °F32.0 °F66 %30.15 in10.0 miWest (280°)6.9 mphClear
9:55 AM44.6 °F32.0 °F61 %30.15 in10.0 miWNW (300°)10.4 mphClear
10:15 AM46.4 °F30.2 °F53 %30.15 in10.0 miWNW (290°)9.2 mphClear
10:35 AM48.2 °F30.2 °F50 %30.15 in10.0 miNW (310°)9.2 mphClear
10:55 AM48.2 °F30.2 °F50 %30.15 in10.0 miNW (320°)6.9 mphClear
11:15 AM51.8 °F30.2 °F44 %30.15 in10.0 miWNW (290°)6.9 mphClear
11:35 AM51.8 °F30.2 °F44 %30.14 in10.0 miNorth (350°)6.9 mphClear
11:55 AM53.6 °F28.4 °F38 %30.13 in10.0 miNW (320°)5.8 mphClear
12:15 PM53.6 °F28.4 °F38 %30.12 in10.0 miNNW (340°)4.6 mphClear
12:35 PM55.4 °F24.8 °F31 %30.12 in10.0 miWNW (300°)8.1 mphClear
12:55 PM53.6 °F26.6 °F35 %30.11 in10.0 miNorth (350°)8.1 mphClear
1:15 PM55.4 °F23.0 °F29 %30.09 in10.0 miNW (310°)5.8 mphClear
1:35 PM57.2 °F23.0 °F27 %30.08 in10.0 miVariable6.9 mphClear
1:55 PM57.2 °F23.0 °F27 %30.07 in10.0 miCalmClear
2:15 PM57.2 °F23.0 °F27 %30.06 in10.0 miNW (320°)9.2 mphClear
2:35 PM57.2 °F21.2 °F25 %30.05 in10.0 miNNW (330°)9.2 mphClear
2:55 PM59.0 °F23.0 °F25 %30.04 in10.0 miNW (320°)6.9 mphClear
3:15 PM59.0 °F21.2 °F23 %30.04 in10.0 miNNW (330°)8.1 mphClear
3:55 PM60.8 °F19.4 °F20 %30.03 in10.0 miNW (320°)4.6 mphClear
4:15 PM59.0 °F21.2 °F23 %30.03 in10.0 miNNW (340°)6.9 mphClear
4:35 PM60.8 °F19.4 °F20 %30.03 in10.0 miNW (310°)8.1 mphClear
4:55 PM57.2 °F19.4 °F23 %30.02 in10.0 miNNW (330°)4.6 mphClear
5:15 PM59.0 °F19.4 °F22 %30.02 in10.0 miNW (320°)3.5 mphClear
5:35 PM59.0 °F19.4 °F22 %30.02 in10.0 miCalmClear
5:55 PM57.2 °F21.2 °F25 %30.02 in10.0 miNW (320°)4.6 mphClear
6:15 PM55.4 °F21.2 °F26 %30.02 in10.0 miNW (320°)3.5 mphClear
6:35 PM55.4 °F21.2 °F26 %30.02 in10.0 miCalmClear
6:55 PM51.8 °F19.4 °F28 %30.03 in10.0 miNorth (10°)4.6 mphClear
7:15 PM48.2 °F19.4 °F32 %30.03 in10.0 miNorth (10°)5.8 mphClear
7:35 PM51.8 °F19.4 °F28 %30.04 in10.0 miNE (40°)5.8 mphClear
7:55 PM51.8 °F19.4 °F28 %30.04 in10.0 miNE (50°)5.8 mphClear
8:15 PM48.2 °F19.4 °F32 %30.04 in10.0 miEast (90°)4.6 mphClear
8:35 PM48.2 °F19.4 °F32 %30.04 in10.0 miEast (80°)6.9 mphClear
8:55 PM48.2 °F19.4 °F32 %30.04 in10.0 miEast (100°)5.8 mphClear
9:15 PM48.2 °F19.4 °F32 %30.05 in10.0 miESE (110°)3.5 mphClear
9:35 PM46.4 °F19.4 °F34 %30.05 in10.0 miSE (130°)5.8 mphClear
9:55 PM44.6 °F19.4 °F37 %30.05 in10.0 miSE (130°)4.6 mphClear
10:15 PM44.6 °F19.4 °F37 %30.05 in10.0 miSE (140°)4.6 mphClear
10:35 PM44.6 °F19.4 °F37 %30.06 in10.0 miSSE (150°)4.6 mphClear
10:55 PM42.8 °F19.4 °F39 %30.06 in10.0 miSSE (150°)4.6 mphClear
11:15 PM42.8 °F19.4 °F39 %30.06 in10.0 miSSE (150°)5.8 mphClear
11:35 PM42.8 °F19.4 °F39 %30.05 in10.0 miSE (140°)4.6 mphClear
11:55 PM42.8 °F19.4 °F39 %30.05 in10.0 miSSE (150°)5.8 mphClear
Hourly data recorded from KBBD, located miles away from Camp San Saba, Texas







STORIES FROM OUR PARTNERS